| time (UTC) | temp F | wind direction | speed MPH | gust MPH | rain 1hr in | rain 24hr in | rain mn in | humidity % | barometer mb |
| 20260902030100 | 65 | 277 | 0.0 | 0.0 | 0.00 | 0.55 | 0.55 | 100 | 1003.0 |
| 20260902025609 | 65 | 278 | 0.0 | 0.0 | 0.00 | 0.55 | 0.55 | 100 | 1002.9 |
| 20260902025028 | 65 | 278 | 0.0 | 0.0 | 0.00 | 0.55 | 0.55 | 100 | 1002.9 |
| 20260902024537 | 65 | 277 | 0.0 | 0.0 | 0.00 | 0.55 | 0.55 | 100 | 1002.9 |
| 20260902024046 | 65 | 277 | 0.0 | 0.0 | 0.00 | 0.55 | 0.55 | 100 | 1002.9 |
| 20260902023528 | 65 | 277 | 0.0 | 0.0 | 0.00 | 0.55 | 0.55 | 100 | 1002.8 |
| 20260902023051 | 66 | 277 | 0.0 | 0.0 | 0.00 | 0.55 | 0.55 | 100 | 1003.0 |
| 20260902022554 | 66 | 277 | 0.0 | 0.0 | 0.00 | 0.55 | 0.55 | 100 | 1003.0 |
| 20260902022023 | 66 | 277 | 0.0 | 0.0 | 0.00 | 0.55 | 0.55 | 100 | 1002.8 |
| 20260902021524 | 66 | 277 | 0.0 | 0.0 | 0.00 | 0.55 | 0.55 | 100 | 1002.9 |
| 20260902021032 | 66 | 277 | 0.0 | 0.0 | 0.00 | 0.55 | 0.55 | 100 | 1002.8 |
| 20260902020544 | 66 | 277 | 0.0 | 0.0 | 0.00 | 0.55 | 0.55 | 100 | 1002.8 |
| 20260902020050 | 66 | 277 | 0.0 | 0.0 | 0.00 | 0.55 | 0.55 | 100 | 1002.9 |
| 20260902015601 | 66 | 277 | 0.0 | 0.0 | 0.00 | 0.55 | 0.55 | 100 | 1002.8 |
| 20260902015020 | 66 | 277 | 0.0 | 0.0 | 0.00 | 0.55 | 0.55 | 100 | 1002.8 |
| 20260902014530 | 66 | 278 | 0.0 | 0.0 | 0.00 | 0.55 | 0.55 | 100 | 1002.8 |
| 20260902014040 | 66 | 277 | 0.0 | 0.0 | 0.00 | 0.55 | 0.55 | 100 | 1002.8 |
| 20260902013522 | 66 | 278 | 0.0 | 1.0 | 0.00 | 0.55 | 0.55 | 100 | 1002.7 |
| 20260902013029 | 66 | 277 | 0.0 | 1.0 | 0.00 | 0.55 | 0.55 | 100 | 1002.6 |
| 20260902012529 | 66 | 277 | 0.0 | 1.0 | 0.00 | 0.55 | 0.55 | 100 | 1002.5 |
| 20260902012039 | 66 | 277 | 0.0 | 1.0 | 0.00 | 0.55 | 0.55 | 100 | 1002.5 |
| 20260902011528 | 66 | 277 | 0.0 | 0.0 | 0.00 | 0.55 | 0.55 | 100 | 1002.6 |
| 20260902011024 | 66 | 277 | 0.0 | 0.0 | 0.00 | 0.55 | 0.55 | 100 | 1002.5 |
| 20260902010535 | 66 | 277 | 0.0 | 0.0 | 0.00 | 0.55 | 0.55 | 100 | 1002.5 |
| 20260902010043 | 66 | 277 | 0.0 | 0.0 | 0.00 | 0.55 | 0.55 | 100 | 1002.5 |
| 20260902005524 | 66 | 277 | 0.0 | 1.0 | 0.00 | 0.55 | 0.55 | 100 | 1002.4 |
| 20260902005032 | 66 | 277 | 0.0 | 1.0 | 0.00 | 0.55 | 0.55 | 100 | 1002.4 |
| 20260902004542 | 66 | 277 | 0.0 | 0.0 | 0.00 | 0.55 | 0.55 | 100 | 1002.4 |
| 20260902004022 | 66 | 277 | 0.0 | 0.0 | 0.00 | 0.55 | 0.55 | 100 | 1002.3 |
| 20260902003534 | 66 | 277 | 0.0 | 0.0 | 0.00 | 0.55 | 0.55 | 100 | 1002.2 |
| 20260902003020 | 66 | 277 | 0.0 | 0.0 | 0.00 | 0.55 | 0.55 | 100 | 1002.2 |
| 20260902002527 | 67 | 277 | 0.0 | 0.0 | 0.00 | 0.55 | 0.55 | 100 | 1002.2 |
| 20260902002027 | 67 | 277 | 0.0 | 0.0 | 0.00 | 0.55 | 0.55 | 100 | 1002.2 |
| 20260902001536 | 67 | 277 | 0.0 | 0.0 | 0.00 | 0.55 | 0.55 | 100 | 1002.1 |
| 20260902001045 | 67 | 277 | 0.0 | 0.0 | 0.00 | 0.55 | 0.55 | 100 | 1002.2 |
| 20260902000552 | 67 | 277 | 0.0 | 0.0 | 0.00 | 0.55 | 0.55 | 100 | 1002.1 |
| 20260902000038 | 67 | 277 | 0.0 | 0.0 | 0.00 | 0.55 | 0.55 | 100 | 1002.1 |
| 20260901235549 | 67 | 277 | 0.0 | 0.0 | 0.00 | 0.55 | 0.55 | 100 | 1002.1 |
| 20260901235028 | 67 | 277 | 0.0 | 0.0 | 0.00 | 0.55 | 0.55 | 100 | 1002.1 |
| 20260901234537 | 67 | 277 | 0.0 | 0.0 | 0.00 | 0.55 | 0.55 | 100 | 1002.0 |
| 20260901234035 | 67 | 277 | 0.0 | 0.0 | 0.00 | 0.55 | 0.55 | 100 | 1002.0 |
| 20260901233526 | 67 | 277 | 0.0 | 0.0 | 0.00 | 0.55 | 0.55 | 100 | 1002.0 |
| 20260901233034 | 67 | 277 | 0.0 | 0.0 | 0.00 | 0.55 | 0.55 | 100 | 1001.9 |
| 20260901232534 | 67 | 277 | 0.0 | 0.0 | 0.00 | 0.55 | 0.55 | 100 | 1001.9 |
| 20260901232042 | 67 | 277 | 0.0 | 0.0 | 0.00 | 0.55 | 0.55 | 100 | 1001.8 |
| 20260901231529 | 67 | 277 | 0.0 | 0.0 | 0.00 | 0.55 | 0.55 | 100 | 1001.8 |
| 20260901231036 | 67 | 277 | 0.0 | 0.0 | 0.00 | 0.55 | 0.55 | 100 | 1001.8 |
| 20260901230527 | 68 | 277 | 0.0 | 0.0 | 0.00 | 0.55 | 0.55 | 100 | 1001.9 |
| 20260901230050 | 68 | 277 | 0.0 | 0.0 | 0.00 | 0.55 | 0.55 | 100 | 1001.8 |
| 20260901225601 | 68 | 277 | 0.0 | 0.0 | 0.00 | 0.55 | 0.55 | 100 | 1001.7 |
| 20260901225020 | 68 | 277 | 0.0 | 0.0 | 0.00 | 0.55 | 0.55 | 100 | 1001.8 |
| 20260901224530 | 68 | 277 | 0.0 | 0.0 | 0.00 | 0.55 | 0.55 | 100 | 1001.8 |
| 20260901224039 | 68 | 277 | 0.0 | 0.0 | 0.00 | 0.55 | 0.55 | 100 | 1001.7 |
| 20260901223541 | 68 | 277 | 0.0 | 0.0 | 0.00 | 0.55 | 0.55 | 100 | 1001.6 |
| 20260901223048 | 68 | 277 | 0.0 | 0.0 | 0.00 | 0.55 | 0.55 | 100 | 1001.5 |
| 20260901222536 | 68 | 277 | 0.0 | 0.0 | 0.00 | 0.55 | 0.55 | 100 | 1001.5 |
| 20260901222046 | 68 | 277 | 0.0 | 1.0 | 0.00 | 0.55 | 0.55 | 100 | 1001.5 |
| 20260901221526 | 68 | 277 | 0.0 | 1.0 | 0.00 | 0.55 | 0.55 | 100 | 1001.5 |
| 20260901221035 | 69 | 277 | 0.0 | 1.0 | 0.00 | 0.55 | 0.55 | 100 | 1001.5 |
| 20260901220547 | 69 | 277 | 0.0 | 1.0 | 0.00 | 0.55 | 0.55 | 100 | 1001.6 |
| 20260901220026 | 69 | 322 | 0.0 | 0.0 | 0.00 | 0.55 | 0.55 | 100 | 1001.7 |
| 20260901215535 | 69 | 322 | 0.0 | 0.0 | 0.00 | 0.55 | 0.55 | 100 | 1001.8 |
| 20260901215035 | 69 | 322 | 0.0 | 0.0 | 0.00 | 0.55 | 0.55 | 100 | 1001.8 |
| 20260901214521 | 69 | 322 | 0.0 | 0.0 | 0.00 | 0.55 | 0.55 | 100 | 1001.8 |
| 20260901214027 | 69 | 322 | 0.0 | 0.0 | 0.00 | 0.55 | 0.55 | 100 | 1001.8 |
| 20260901213529 | 69 | 322 | 0.0 | 0.0 | 0.00 | 0.55 | 0.55 | 100 | 1001.8 |
| 20260901213033 | 69 | 322 | 0.0 | 0.0 | 0.00 | 0.55 | 0.55 | 100 | 1001.7 |
| 20260901212543 | 70 | 322 | 0.0 | 0.0 | 0.00 | 0.55 | 0.55 | 100 | 1001.7 |
| 20260901212023 | 70 | 322 | 0.0 | 0.0 | 0.00 | 0.55 | 0.55 | 100 | 1001.6 |
| 20260901211532 | 70 | 322 | 0.0 | 0.0 | 0.00 | 0.55 | 0.55 | 100 | 1001.5 |
| 20260901211041 | 70 | 322 | 0.0 | 0.0 | 0.00 | 0.55 | 0.55 | 100 | 1001.6 |
| 20260901210553 | 70 | 322 | 0.0 | 0.0 | 0.00 | 0.55 | 0.55 | 100 | 1001.4 |
| 20260901210100 | 70 | 322 | 0.0 | 0.0 | 0.00 | 0.55 | 0.55 | 100 | 1001.4 |
| 20260901205520 | 70 | 322 | 0.0 | 0.0 | 0.00 | 0.55 | 0.55 | 100 | 1001.3 |
| 20260901205048 | 70 | 322 | 0.0 | 0.0 | 0.00 | 0.55 | 0.55 | 100 | 1001.3 |
| 20260901204556 | 70 | 322 | 0.0 | 1.0 | 0.00 | 0.55 | 0.55 | 100 | 1001.4 |
| 20260901204023 | 70 | 323 | 0.0 | 2.0 | 0.00 | 0.55 | 0.55 | 99 | 1001.3 |
| 20260901203522 | 70 | 330 | 1.0 | 2.0 | 0.00 | 0.55 | 0.55 | 100 | 1001.4 |
| 20260901203030 | 71 | 292 | 0.0 | 1.0 | 0.00 | 0.55 | 0.55 | 100 | 1001.3 |
| 20260901202540 | 71 | 133 | 0.0 | 1.0 | 0.00 | 0.55 | 0.55 | 100 | 1001.2 |
| 20260901202048 | 70 | 133 | 0.0 | 2.0 | 0.00 | 0.55 | 0.55 | 100 | 1001.4 |
| 20260901201527 | 70 | 242 | 0.0 | 2.0 | 0.00 | 0.55 | 0.55 | 100 | 1001.5 |
| 20260901201037 | 70 | 118 | 0.0 | 1.0 | 0.00 | 0.55 | 0.55 | 100 | 1001.5 |
| 20260901200529 | 70 | 118 | 0.0 | 1.0 | 0.00 | 0.55 | 0.55 | 100 | 1001.5 |
| 20260901200027 | 70 | 121 | 0.0 | 0.0 | 0.00 | 0.55 | 0.55 | 100 | 1001.5 |
| 20260901195535 | 70 | 121 | 0.0 | 0.0 | 0.00 | 0.55 | 0.55 | 100 | 1001.6 |
| 20260901195045 | 70 | 237 | 0.0 | 1.0 | 0.00 | 0.55 | 0.55 | 100 | 1001.6 |
| 20260901194525 | 70 | 110 | 0.0 | 1.0 | 0.00 | 0.55 | 0.55 | 100 | 1001.5 |
| 20260901194034 | 70 | 229 | 0.0 | 1.0 | 0.00 | 0.55 | 0.55 | 100 | 1001.5 |
| 20260901193522 | 70 | 229 | 0.0 | 1.0 | 0.00 | 0.55 | 0.55 | 100 | 1001.5 |
| 20260901193028 | 70 | 230 | 0.0 | 1.0 | 0.00 | 0.55 | 0.55 | 100 | 1001.4 |
| 20260901192524 | 70 | 230 | 0.0 | 1.0 | 0.00 | 0.55 | 0.55 | 100 | 1001.3 |
| 20260901192034 | 70 | 129 | 0.0 | 1.0 | 0.00 | 0.55 | 0.55 | 100 | 1001.3 |
| 20260901191523 | 70 | 129 | 0.0 | 1.0 | 0.00 | 0.55 | 0.55 | 100 | 1001.3 |
| 20260901191022 | 70 | 129 | 0.0 | 1.0 | 0.00 | 0.55 | 0.55 | 100 | 1001.3 |
| 20260901190535 | 69 | 129 | 0.0 | 1.0 | 0.00 | 0.55 | 0.55 | 100 | 1001.3 |
| 20260901190042 | 70 | 281 | 0.0 | 1.0 | 0.00 | 0.55 | 0.55 | 100 | 1001.4 |
| 20260901185530 | 70 | 111 | 0.0 | 1.0 | 0.00 | 0.55 | 0.55 | 100 | 1001.4 |
| 20260901185059 | 70 | 112 | 0.0 | 1.0 | 0.00 | 0.55 | 0.55 | 100 | 1001.3 |
| 20260901184538 | 70 | 112 | 0.0 | 1.0 | 0.00 | 0.55 | 0.55 | 100 | 1001.3 |
| 20260901184044 | 69 | 118 | 0.0 | 1.0 | 0.00 | 0.55 | 0.55 | 100 | 1001.4 |
| 20260901183552 | 70 | 123 | 0.0 | 0.0 | 0.00 | 0.55 | 0.55 | 100 | 1001.5 |
| 20260901183053 | 69 | 122 | 0.0 | 2.0 | 0.00 | 0.55 | 0.55 | 100 | 1001.5 |
| 20260901182541 | 69 | 122 | 0.0 | 2.0 | 0.00 | 0.55 | 0.55 | 100 | 1001.5 |
| 20260901182049 | 68 | 271 | 0.0 | 1.0 | 0.00 | 0.55 | 0.55 | 100 | 1001.5 |
| 20260901181534 | 68 | 120 | 0.0 | 1.0 | 0.00 | 0.55 | 0.55 | 100 | 1001.5 |
| 20260901181045 | 68 | 150 | 0.0 | 2.0 | 0.00 | 0.55 | 0.55 | 100 | 1001.5 |
| 20260901180528 | 68 | 150 | 0.0 | 2.0 | 0.00 | 0.55 | 0.55 | 100 | 1001.5 |
| 20260901180036 | 68 | 107 | 0.0 | 1.0 | 0.00 | 0.55 | 0.55 | 100 | 1001.5 |
| 20260901175546 | 68 | 104 | 0.0 | 2.0 | 0.00 | 0.55 | 0.55 | 100 | 1001.5 |
| 20260901175026 | 68 | 282 | 0.0 | 2.0 | 0.00 | 0.55 | 0.55 | 100 | 1001.5 |
| 20260901174535 | 68 | 266 | 0.0 | 1.0 | 0.01 | 0.55 | 0.55 | 100 | 1001.4 |
| 20260901174045 | 68 | 160 | 0.0 | 0.0 | 0.01 | 0.55 | 0.55 | 100 | 1001.5 |
| 20260901173528 | 68 | 147 | 0.0 | 1.0 | 0.01 | 0.55 | 0.55 | 100 | 1001.5 |
| 20260901173036 | 68 | 146 | 0.0 | 1.0 | 0.02 | 0.55 | 0.55 | 100 | 1001.5 |
| 20260901172546 | 67 | 135 | 0.0 | 3.0 | 0.03 | 0.55 | 0.55 | 100 | 1001.4 |
| 20260901172025 | 67 | 188 | 0.0 | 3.0 | 0.03 | 0.55 | 0.55 | 100 | 1001.4 |
| 20260901171535 | 67 | 314 | 0.0 | 2.0 | 0.04 | 0.55 | 0.55 | 100 | 1001.4 |
| 20260901171059 | 68 | 233 | 0.0 | 1.0 | 0.04 | 0.55 | 0.55 | 100 | 1001.4 |
| 20260901170611 | 68 | 220 | 0.0 | 1.0 | 0.04 | 0.55 | 0.55 | 100 | 1001.4 |
| 20260901170026 | 68 | 263 | 0.0 | 1.0 | 0.04 | 0.55 | 0.55 | 100 | 1001.4 |
| 20260901165535 | 67 | 271 | 0.0 | 1.0 | 0.04 | 0.55 | 0.55 | 100 | 1001.3 |
| 20260901165045 | 67 | 270 | 0.0 | 1.0 | 0.04 | 0.55 | 0.55 | 100 | 1001.5 |
| 20260901164526 | 67 | 270 | 0.0 | 1.0 | 0.03 | 0.54 | 0.54 | 100 | 1001.6 |
| 20260901164035 | 67 | 270 | 0.0 | 2.0 | 0.03 | 0.54 | 0.54 | 100 | 1001.7 |
| 20260901163546 | 67 | 96 | 0.0 | 3.0 | 0.03 | 0.54 | 0.54 | 100 | 1001.7 |
| 20260901163024 | 67 | 143 | 0.0 | 3.0 | 0.02 | 0.53 | 0.53 | 100 | 1001.7 |
| 20260901162534 | 67 | 101 | 0.0 | 1.0 | 0.01 | 0.52 | 0.52 | 100 | 1001.8 |
| 20260901162034 | 67 | 108 | 0.0 | 1.0 | 0.01 | 0.52 | 0.52 | 100 | 1001.8 |
| 20260901161541 | 67 | 134 | 0.0 | 0.0 | 0.00 | 0.51 | 0.51 | 100 | 1001.8 |
| 20260901161049 | 67 | 134 | 0.0 | 0.0 | 0.00 | 0.51 | 0.51 | 100 | 1001.8 |
| 20260901160532 | 67 | 134 | 0.0 | 0.0 | 0.01 | 0.51 | 0.51 | 100 | 1001.7 |
| 20260901160040 | 67 | 134 | 0.0 | 0.0 | 0.02 | 0.51 | 0.51 | 100 | 1001.7 |
| 20260901155547 | 67 | 134 | 0.0 | 0.0 | 0.03 | 0.51 | 0.51 | 100 | 1001.7 |
| 20260901155027 | 67 | 134 | 0.0 | 0.0 | 0.05 | 0.51 | 0.51 | 100 | 1001.6 |
| 20260901154536 | 66 | 134 | 0.0 | 0.0 | 0.07 | 0.51 | 0.51 | 100 | 1001.7 |
| 20260901154045 | 66 | 134 | 0.0 | 2.0 | 0.08 | 0.51 | 0.51 | 100 | 1001.7 |
| 20260901153528 | 66 | 134 | 0.0 | 2.0 | 0.10 | 0.51 | 0.51 | 100 | 1001.7 |
| 20260901153035 | 67 | 239 | 0.0 | 1.0 | 0.10 | 0.51 | 0.51 | 100 | 1001.7 |
| 20260901152545 | 67 | 239 | 0.0 | 2.0 | 0.11 | 0.51 | 0.51 | 100 | 1001.6 |
| 20260901152025 | 66 | 265 | 1.0 | 2.0 | 0.12 | 0.51 | 0.51 | 100 | 1001.4 |
| 20260901151534 | 67 | 319 | 0.0 | 1.0 | 0.12 | 0.51 | 0.51 | 100 | 1001.2 |
| 20260901151044 | 67 | 286 | 0.0 | 1.0 | 0.12 | 0.50 | 0.50 | 100 | 1001.2 |
| 20260901150526 | 67 | 291 | 0.0 | 3.0 | 0.12 | 0.50 | 0.50 | 100 | 1000.7 |
| 20260901150033 | 67 | 290 | 1.0 | 3.0 | 0.12 | 0.49 | 0.49 | 100 | 999.2 |
| 20260901145545 | 67 | 261 | 0.0 | 1.0 | 0.11 | 0.48 | 0.48 | 100 | 999.1 |
| 20260901145024 | 67 | 261 | 0.0 | 1.0 | 0.09 | 0.46 | 0.46 | 100 | 1000.1 |
| 20260901144527 | 67 | 261 | 0.0 | 1.0 | 0.07 | 0.44 | 0.44 | 100 | 1000.9 |
| 20260901144036 | 67 | 261 | 0.0 | 0.0 | 0.06 | 0.43 | 0.43 | 100 | 1001.4 |
| 20260901143536 | 67 | 261 | 0.0 | 0.0 | 0.04 | 0.41 | 0.41 | 100 | 1001.4 |
| 20260901143024 | 67 | 261 | 0.0 | 1.0 | 0.04 | 0.41 | 0.41 | 100 | 1001.5 |
| 20260901142535 | 67 | 261 | 0.0 | 1.0 | 0.03 | 0.40 | 0.40 | 100 | 1001.5 |
| 20260901142035 | 67 | 261 | 0.0 | 1.0 | 0.02 | 0.39 | 0.39 | 100 | 1001.4 |
| 20260901141544 | 67 | 261 | 0.0 | 1.0 | 0.02 | 0.39 | 0.39 | 100 | 1001.4 |
| 20260901141032 | 67 | 261 | 0.0 | 0.0 | 0.01 | 0.38 | 0.38 | 100 | 1001.5 |
| 20260901140543 | 67 | 261 | 0.0 | 0.0 | 0.01 | 0.38 | 0.38 | 100 | 1001.5 |
| 20260901140022 | 67 | 261 | 0.0 | 0.0 | 0.00 | 0.38 | 0.37 | 100 | 1001.4 |
| 20260901135550 | 67 | 261 | 0.0 | 2.0 | 0.00 | 0.38 | 0.37 | 100 | 1001.3 |
| 20260901135100 | 67 | 261 | 0.0 | 2.0 | 0.00 | 0.38 | 0.37 | 100 | 1001.2 |
| 20260901134528 | 67 | 257 | 0.0 | 1.0 | 0.00 | 0.38 | 0.37 | 100 | 1001.1 |
| 20260901134026 | 67 | 257 | 0.0 | 2.0 | 0.00 | 0.38 | 0.37 | 100 | 1001.2 |
| 20260901133020 | 67 | 256 | 0.0 | 1.0 | 0.01 | 0.38 | 0.37 | 100 | 1001.1 |
| 20260901132530 | 67 | 256 | 0.0 | 1.0 | 0.01 | 0.38 | 0.37 | 100 | 1001.1 |
| 20260901132036 | 67 | 256 | 0.0 | 1.0 | 0.01 | 0.38 | 0.37 | 100 | 1001.3 |
| 20260901131546 | 67 | 256 | 0.0 | 0.0 | 0.01 | 0.38 | 0.37 | 100 | 1001.4 |
| 20260901131026 | 67 | 256 | 0.0 | 0.0 | 0.01 | 0.38 | 0.37 | 100 | 1001.6 |
| 20260901130536 | 67 | 256 | 0.0 | 0.0 | 0.02 | 0.38 | 0.37 | 100 | 1001.6 |
| 20260901130044 | 67 | 255 | 0.0 | 0.0 | 0.02 | 0.38 | 0.37 | 100 | 1001.6 |
| 20260901125543 | 66 | 255 | 0.0 | 0.0 | 0.02 | 0.38 | 0.37 | 100 | 1001.7 |
| 20260901125037 | 66 | 256 | 0.0 | 0.0 | 0.02 | 0.38 | 0.37 | 100 | 1001.8 |
| 20260901124546 | 66 | 255 | 0.0 | 1.0 | 0.02 | 0.38 | 0.37 | 100 | 1001.9 |
| 20260901124026 | 66 | 256 | 0.0 | 1.0 | 0.03 | 0.38 | 0.37 | 100 | 1002.0 |
| 20260901123538 | 66 | 255 | 0.0 | 1.0 | 0.03 | 0.38 | 0.37 | 100 | 1002.0 |
| 20260901123044 | 66 | 255 | 0.0 | 1.0 | 0.02 | 0.37 | 0.36 | 100 | 1002.1 |
| 20260901122520 | 66 | 255 | 0.0 | 0.0 | 0.02 | 0.37 | 0.36 | 100 | 1002.1 |
| 20260901122029 | 66 | 256 | 0.0 | 1.0 | 0.02 | 0.37 | 0.36 | 100 | 1002.0 |
| 20260901121538 | 65 | 255 | 0.0 | 1.0 | 0.03 | 0.37 | 0.36 | 100 | 1001.9 |
| 20260901121039 | 65 | 255 | 0.0 | 0.0 | 0.03 | 0.37 | 0.36 | 100 | 1001.9 |
| 20260901120530 | 65 | 255 | 0.0 | 0.0 | 0.02 | 0.36 | 0.35 | 100 | 1002.0 |
| 20260901120044 | 65 | 255 | 0.0 | 0.0 | 0.02 | 0.36 | 0.35 | 100 | 1001.9 |
| 20260901115551 | 65 | 255 | 0.0 | 0.0 | 0.02 | 0.36 | 0.35 | 100 | 1002.0 |
| 20260901115030 | 65 | 255 | 0.0 | 0.0 | 0.02 | 0.36 | 0.35 | 100 | 1001.9 |
| 20260901114539 | 65 | 255 | 0.0 | 0.0 | 0.02 | 0.36 | 0.35 | 100 | 1001.9 |
| 20260901114027 | 65 | 256 | 0.0 | 0.0 | 0.01 | 0.35 | 0.34 | 100 | 1002.0 |
| 20260901113526 | 65 | 255 | 0.0 | 1.0 | 0.02 | 0.35 | 0.34 | 100 | 1002.0 |
| 20260901113034 | 65 | 256 | 0.0 | 1.0 | 0.04 | 0.35 | 0.34 | 100 | 1002.1 |
| 20260901112524 | 65 | 264 | 0.0 | 0.0 | 0.05 | 0.35 | 0.34 | 100 | 1002.0 |
| 20260901112020 | 65 | 264 | 0.0 | 0.0 | 0.08 | 0.35 | 0.34 | 100 | 1001.9 |
| 20260901111530 | 65 | 264 | 0.0 | 0.0 | 0.10 | 0.34 | 0.33 | 100 | 1002.2 |
| 20260901111035 | 65 | 264 | 0.0 | 0.0 | 0.13 | 0.34 | 0.33 | 100 | 1002.2 |
| 20260901110545 | 65 | 264 | 0.0 | 0.0 | 0.15 | 0.34 | 0.33 | 100 | 1002.2 |
| 20260901105521 | 65 | 264 | 0.0 | 0.0 | 0.21 | 0.34 | 0.33 | 100 | 1002.0 |
| 20260901105030 | 65 | 264 | 0.0 | 0.0 | 0.25 | 0.34 | 0.33 | 100 | 1001.9 |
| 20260901104529 | 65 | 264 | 0.0 | 0.0 | 0.28 | 0.34 | 0.33 | 100 | 1001.7 |
| 20260901104039 | 65 | 264 | 0.0 | 0.0 | 0.30 | 0.34 | 0.33 | 99 | 1001.4 |
| 20260901103530 | 65 | 264 | 0.0 | 0.0 | 0.30 | 0.33 | 0.32 | 99 | 1001.4 |
| 20260901103057 | 65 | 264 | 0.0 | 0.0 | 0.28 | 0.31 | 0.30 | 99 | 1001.1 |
| 20260901102537 | 65 | 264 | 0.0 | 0.0 | 0.27 | 0.30 | 0.29 | 99 | 1001.0 |
| 20260901102026 | 65 | 264 | 0.0 | 0.0 | 0.25 | 0.27 | 0.26 | 99 | 1001.4 |
| 20260901101535 | 65 | 264 | 0.0 | 0.0 | 0.22 | 0.24 | 0.23 | 99 | 1001.6 |
| 20260901101035 | 65 | 264 | 0.0 | 0.0 | 0.19 | 0.21 | 0.20 | 99 | 1001.7 |
| 20260901100548 | 65 | 264 | 0.0 | 0.0 | 0.17 | 0.19 | 0.18 | 99 | 1001.5 |
| 20260901100050 | 65 | 264 | 0.0 | 0.0 | 0.14 | 0.15 | 0.14 | 99 | 1001.6 |
| 20260901095538 | 65 | 264 | 0.0 | 0.0 | 0.11 | 0.12 | 0.11 | 99 | 1001.6 |
| 20260901095047 | 65 | 264 | 0.0 | 0.0 | 0.08 | 0.09 | 0.08 | 98 | 1001.5 |
| 20260901094528 | 65 | 264 | 0.0 | 0.0 | 0.05 | 0.06 | 0.05 | 98 | 1001.6 |
| 20260901094037 | 65 | 264 | 0.0 | 0.0 | 0.03 | 0.04 | 0.03 | 98 | 1001.6 |
| 20260901093549 | 65 | 264 | 0.0 | 0.0 | 0.02 | 0.03 | 0.02 | 98 | 1001.5 |
| 20260901093028 | 65 | 264 | 0.0 | 0.0 | 0.02 | 0.03 | 0.02 | 98 | 1001.5 |
| 20260901092537 | 65 | 264 | 0.0 | 0.0 | 0.02 | 0.03 | 0.02 | 98 | 1001.4 |
| 20260901092048 | 65 | 264 | 0.0 | 0.0 | 0.01 | 0.02 | 0.01 | 98 | 1001.3 |
| 20260901091554 | 65 | 264 | 0.0 | 0.0 | 0.01 | 0.02 | 0.01 | 98 | 1001.2 |
| 20260901091030 | 65 | 264 | 0.0 | 0.0 | 0.01 | 0.02 | 0.01 | 98 | 1001.3 |
| 20260901090522 | 65 | 264 | 0.0 | 0.0 | 0.01 | 0.02 | 0.01 | 98 | 1001.4 |
| 20260901090030 | 65 | 264 | 0.0 | 0.0 | 0.00 | 0.01 | 0.00 | 98 | 1001.4 |
| 20260901085530 | 65 | 264 | 0.0 | 0.0 | 0.00 | 0.01 | 0.00 | 98 | 1001.4 |
| 20260901085020 | 65 | 264 | 0.0 | 0.0 | 0.00 | 0.01 | 0.00 | 98 | 1001.4 |
| 20260901084547 | 65 | 264 | 0.0 | 0.0 | 0.00 | 0.01 | 0.00 | 98 | 1001.4 |
| 20260901084024 | 65 | 264 | 0.0 | 0.0 | 0.00 | 0.01 | 0.00 | 98 | 1001.3 |
| 20260901083535 | 65 | 264 | 0.0 | 0.0 | 0.00 | 0.01 | 0.00 | 98 | 1001.4 |
| 20260901083044 | 65 | 264 | 0.0 | 0.0 | 0.00 | 0.01 | 0.00 | 98 | 1001.5 |
| 20260901082524 | 65 | 264 | 0.0 | 0.0 | 0.00 | 0.01 | 0.00 | 98 | 1001.6 |
| 20260901082034 | 65 | 264 | 0.0 | 0.0 | 0.00 | 0.01 | 0.00 | 98 | 1001.6 |
| 20260901081541 | 65 | 264 | 0.0 | 0.0 | 0.00 | 0.01 | 0.00 | 98 | 1001.6 |
| 20260901081049 | 65 | 264 | 0.0 | 0.0 | 0.00 | 0.01 | 0.00 | 98 | 1001.5 |
| 20260901080528 | 65 | 264 | 0.0 | 0.0 | 0.00 | 0.01 | 0.00 | 98 | 1001.5 |
| 20260901080036 | 65 | 264 | 0.0 | 0.0 | 0.00 | 0.01 | 0.00 | 98 | 1001.7 |
| 20260901075542 | 65 | 264 | 0.0 | 0.0 | 0.00 | 0.01 | 0.00 | 98 | 1001.7 |
| 20260901075030 | 65 | 264 | 0.0 | 0.0 | 0.00 | 0.01 | 0.00 | 98 | 1001.7 |
| 20260901074530 | 65 | 264 | 0.0 | 0.0 | 0.00 | 0.01 | 0.00 | 98 | 1001.7 |
| 20260901074020 | 65 | 264 | 0.0 | 0.0 | 0.00 | 0.01 | 0.00 | 98 | 1001.7 |
| 20260901073546 | 65 | 264 | 0.0 | 0.0 | 0.00 | 0.01 | 0.00 | 98 | 1001.9 |
| 20260901073053 | 65 | 264 | 0.0 | 0.0 | 0.00 | 0.01 | 0.00 | 98 | 1001.9 |
| 20260901072539 | 65 | 264 | 0.0 | 0.0 | 0.00 | 0.01 | 0.00 | 98 | 1001.8 |
| 20260901072049 | 65 | 264 | 0.0 | 0.0 | 0.00 | 0.01 | 0.00 | 98 | 1001.7 |
| 20260901071526 | 65 | 264 | 0.0 | 0.0 | 0.00 | 0.01 | 0.00 | 98 | 1001.8 |
| 20260901071035 | 65 | 264 | 0.0 | 0.0 | 0.00 | 0.01 | 0.00 | 98 | 1001.8 |
| 20260901070538 | 65 | 264 | 0.0 | 0.0 | 0.00 | 0.01 | 0.00 | 98 | 1001.8 |
| 20260901070027 | 65 | 264 | 0.0 | 0.0 | 0.00 | 0.01 | 0.00 | 98 | 1001.8 |
| 20260901065536 | 65 | 264 | 0.0 | 0.0 | 0.00 | 0.01 | 0.00 | 98 | 1001.7 |
| 20260901065037 | 65 | 264 | 0.0 | 0.0 | 0.00 | 0.01 | 0.00 | 98 | 1001.6 |
| 20260901064526 | 65 | 264 | 0.0 | 0.0 | 0.00 | 0.01 | 0.00 | 98 | 1001.7 |
| 20260901064027 | 65 | 264 | 0.0 | 0.0 | 0.00 | 0.01 | 0.00 | 98 | 1001.8 |
| 20260901063539 | 65 | 264 | 0.0 | 0.0 | 0.00 | 0.01 | 0.00 | 98 | 1002.1 |
| 20260901063027 | 65 | 264 | 0.0 | 0.0 | 0.00 | 0.01 | 0.00 | 98 | 1002.2 |
| 20260901062528 | 65 | 264 | 0.0 | 0.0 | 0.00 | 0.01 | 0.00 | 98 | 1002.1 |
| 20260901062030 | 65 | 264 | 0.0 | 0.0 | 0.00 | 0.01 | 0.00 | 98 | 1002.2 |
| 20260901061539 | 65 | 264 | 0.0 | 0.0 | 0.00 | 0.01 | 0.00 | 98 | 1002.2 |
| 20260901061046 | 65 | 264 | 0.0 | 0.0 | 0.00 | 0.01 | 0.00 | 98 | 1002.2 |
| 20260901060556 | 65 | 264 | 0.0 | 0.0 | 0.00 | 0.01 | 0.00 | 98 | 1002.3 |
| 20260901060031 | 65 | 264 | 0.0 | 0.0 | 0.00 | 0.01 | 0.00 | 98 | 1002.3 |
| 20260901055520 | 65 | 264 | 0.0 | 0.0 | 0.00 | 0.01 | 0.00 | 98 | 1002.5 |
| 20260901055029 | 65 | 264 | 0.0 | 0.0 | 0.00 | 0.01 | 0.00 | 98 | 1002.6 |
| 20260901054557 | 65 | 264 | 0.0 | 0.0 | 0.00 | 0.01 | 0.00 | 98 | 1002.7 |
| 20260901054107 | 65 | 264 | 0.0 | 0.0 | 0.00 | 0.01 | 0.00 | 98 | 1002.6 |
| 20260901053555 | 65 | 264 | 0.0 | 0.0 | 0.00 | 0.01 | 0.00 | 98 | 1002.6 |
| 20260901053033 | 65 | 264 | 0.0 | 0.0 | 0.00 | 0.01 | 0.00 | 98 | 1002.5 |
| 20260901052522 | 65 | 264 | 0.0 | 0.0 | 0.00 | 0.01 | 0.00 | 97 | 1002.6 |
| 20260901052047 | 65 | 264 | 0.0 | 0.0 | 0.00 | 0.01 | 0.00 | 97 | 1002.7 |
| 20260901051554 | 65 | 264 | 0.0 | 0.0 | 0.00 | 0.01 | 0.00 | 97 | 1002.7 |
| 20260901051041 | 65 | 264 | 0.0 | 0.0 | 0.00 | 0.01 | 0.00 | 97 | 1002.6 |
| 20260901050522 | 65 | 264 | 0.0 | 0.0 | 0.00 | 0.01 | 0.00 | 97 | 1002.6 |
| 20260901050030 | 65 | 264 | 0.0 | 0.0 | 0.00 | 0.01 | 0.00 | 97 | 1002.7 |
| 20260901045538 | 65 | 264 | 0.0 | 0.0 | 0.00 | 0.01 | 0.00 | 97 | 1002.8 |
| 20260901045048 | 65 | 264 | 0.0 | 0.0 | 0.00 | 0.01 | 0.00 | 97 | 1002.8 |
| 20260901044547 | 65 | 264 | 0.0 | 0.0 | 0.00 | 0.01 | 0.00 | 97 | 1002.9 |
| 20260901044054 | 65 | 264 | 0.0 | 0.0 | 0.00 | 0.01 | 0.00 | 97 | 1003.1 |
| 20260901043525 | 65 | 264 | 0.0 | 0.0 | 0.00 | 0.01 | 0.00 | 97 | 1003.0 |
| 20260901043046 | 65 | 264 | 0.0 | 0.0 | 0.00 | 0.01 | 0.00 | 97 | 1002.9 |
| 20260901042550 | 65 | 264 | 0.0 | 0.0 | 0.00 | 0.01 | 0.00 | 97 | 1003.0 |
| 20260901042101 | 65 | 264 | 0.0 | 0.0 | 0.00 | 0.01 | 0.00 | 97 | 1002.8 |
| 20260901041526 | 65 | 264 | 0.0 | 0.0 | 0.00 | 0.01 | 0.00 | 97 | 1002.7 |
| 20260901041027 | 65 | 264 | 0.0 | 0.0 | 0.00 | 0.01 | 0.00 | 97 | 1002.7 |
| 20260901040538 | 65 | 264 | 0.0 | 0.0 | 0.00 | 0.01 | 0.00 | 97 | 1002.5 |
| 20260901040046 | 65 | 264 | 0.0 | 0.0 | 0.00 | 0.01 | 0.01 | 97 | 1002.5 |
| 20260901035526 | 66 | 264 | 0.0 | 0.0 | 0.00 | 0.01 | 0.01 | 97 | 1002.4 |
| 20260901035035 | 66 | 264 | 0.0 | 0.0 | 0.00 | 0.01 | 0.01 | 97 | 1002.5 |
| 20260901034546 | 66 | 264 | 0.0 | 0.0 | 0.00 | 0.01 | 0.01 | 97 | 1002.7 |
| 20260901034027 | 66 | 264 | 0.0 | 0.0 | 0.00 | 0.01 | 0.01 | 97 | 1002.7 |
| 20260901033539 | 66 | 264 | 0.0 | 0.0 | 0.00 | 0.01 | 0.01 | 96 | 1002.7 |
| 20260901033047 | 66 | 264 | 0.0 | 0.0 | 0.00 | 0.01 | 0.01 | 96 | 1002.7 |
| 20260901032527 | 66 | 264 | 0.0 | 0.0 | 0.00 | 0.01 | 0.01 | 96 | 1002.8 |
| 20260901032050 | 66 | 264 | 0.0 | 0.0 | 0.00 | 0.01 | 0.01 | 96 | 1002.7 |
| 20260901031558 | 66 | 264 | 0.0 | 0.0 | 0.00 | 0.01 | 0.01 | 96 | 1002.7 |
| 20260901031026 | 66 | 264 | 0.0 | 0.0 | 0.00 | 0.01 | 0.01 | 96 | 1002.8 |
| 20260901030529 | 66 | 264 | 0.0 | 0.0 | 0.00 | 0.01 | 0.01 | 96 | 1003.0 |